Location: Borojevi?i
(45.0486°N, 16.2297°E)
Time: 17:47:34
(UTC+00:00)

Nimbus 7 Rocket - Pass Details

Date: 08 August 2020
Orbit: 922 x 965 km, 99.4° (Epoch: 24 September)

Event Time Altitude Azimuth Distance (km) Brightness Sun altitude
Rises 22:23:49 0° 14° (NNE) 3,579 8.4 -28.6°
Reaches altitude 10° 22:26:14 10° 14° (NNE) 2,633 7.6 -28.7°
Maximum altitude 22:32:07 85° 288° (WNW) 937 4.3 -28.8°
Enters shadow 22:32:15 84° 252° (WSW) 938 4.3 -28.8°
